[[{"header":{"parameterUnit":"m.s-1","parameterCategory":1,"la1":30.2991,"la2":30.254,"lo1":-89.0895,"lo2":-89.0444,"dy":0.0017,"dx":0.0017,"nx":28,"ny":28,"refTime":"2024-07-31T21:00:00:Z","depth":0,"parameterNumber":2,"parameterNumberName":"U-component_of_WINDS"},"data":[0,0,0,0,0,0,0,0,0,0,0,0,0,0,0,0,0,0,0,0,0,0,0,0,0,0,0,0,0,0,0,0,0,0,0,0,0,0,0,0,0,0,0,0,0,0,0,0,0,0,0,0,0,0,0,0,0,0,1.6859,1.6861,0,1.7045,1.7047,1.7049,1.7078,1.7077,1.7075,1.7074,1.727,1.7277,1.7284,0,0,0,0,0,0,0,0,0,0,0,0,0,1.6533,1.6539,1.6858,1.6861,1.6863,1.7044,1.7047,1.705,1.7079,1.7077,1.7075,1.7073,1.7268,1.7276,1.7284,0,0,0,0,0,0,0,0,0,0,0,0,0,1.6693,1.6541,1.6858,1.6899,1.6905,1.7044,1.7047,1.705,1.7079,1.7077,1.7074,1.7072,1.7265,1.7275,1.7285,1.7398,0,0,1.7317,1.7321,0,0,0,0,0,0,0,0,1.6684,1.6705,1.6891,1.6897,1.6903,1.7036,1.7005,1.7167,1.708,1.7013,1.7074,1.7071,1.7195,1.7211,1.7251,1.7407,1.7416,1.7317,1.7324,1.7328,1.7331,0,0,0,0,0,0,0,1.6672,1.6697,1.6932,1.6894,1.6901,1.691,1.693,1.7035,1.7116,1.7019,1.7021,1.7043,1.7198,1.7241,1.7256,1.7419,1.7317,1.7326,1.7332,1.7336,1.7676,1.7679,0,0,0,0,0,0,1.6653,1.6687,1.6927,1.6938,1.6785,1.6918,1.694,1.6996,1.7115,1.713,1.7045,1.7043,1.7225,1.7244,1.7263,1.7403,1.7328,1.7337,1.7343,1.7673,1.7677,1.768,0,0,0,0,0,0,1.6646,1.6674,1.6919,1.6813,1.6845,1.6926,1.6988,1.7001,1.7044,1.7134,1.7149,1.7074,1.7224,1.7249,1.7364,1.741,1.7342,1.7351,1.767,1.7675,1.7679,1.7682,0,0,0,0,0,0,1.6637,1.6672,1.6714,1.6814,1.6851,1.7015,1.6991,1.7006,1.7061,1.7061,1.7166,1.7181,1.7224,1.7348,1.7374,1.7423,1.7359,1.7666,1.7672,1.7677,1.7679,1.7686,1.7693,0,0,0,0,0,1.6625,1.6709,1.6716,1.6745,1.6905,1.7018,1.7039,1.7085,1.7065,1.7109,1.7166,1.7178,1.74,1.736,1.7389,1.7441,1.7664,1.767,1.7677,1.7675,1.7685,1.7693,0,0,0,0,0,0,1.6615,1.6723,1.6732,1.6851,1.6924,1.7022,1.7079,1.7094,1.7176,1.7173,1.7229,1.7252,1.7364,1.7415,1.7367,1.7556,1.7531,1.7543,1.752,1.7529,1.7536,1.7522,1.7368,0,0,0,0,0,1.6626,1.6706,1.6797,1.6893,1.693,1.6998,1.7049,1.7077,1.7157,1.7189,1.7255,1.7334,1.7421,1.7478,1.7564,1.7686,1.7709,1.7736,1.7743,1.7749,1.7759,1.7827,1.784,1.7702,1.7702,1.7702,0,0,1.6651,1.672,1.6768,1.6893,1.6954,1.7037,1.7024,1.7114,1.7176,1.7204,1.7315,1.7367,1.7458,1.7576,1.7632,1.7622,1.7803,1.7757,1.7761,1.7769,1.7835,1.7848,1.786,1.7706,1.7705,1.7705,0,0,1.6738,1.6798,1.6884,1.6945,1.7036,1.7081,1.7101,1.7197,1.7231,1.7344,1.7366,1.7442,1.7592,1.7656,1.7708,1.7818,1.7832,1.7845,1.7883,1.7949,1.796,1.797,1.8009,1.8023,1.7855,1.7855,1.7855,0,1.6758,1.6883,1.6928,1.7016,1.707,1.7096,1.7185,1.7242,1.7357,1.7395,1.7381,1.7569,1.7632,1.7766,1.7792,1.7834,1.786,1.7834,1.7954,1.7965,1.7975,1.8013,1.8028,1.7856,1.7856,1.7856,1.7856,0,1.6903,1.6989,1.7048,1.7156,1.7218,1.7306,1.7365,1.7422,1.7445,1.7492,1.7607,1.7683,1.7784,1.7818,1.7843,1.7956,1.7946,1.7943,1.7918,1.7988,1.8025,1.804,1.7858,1.7857,1.7857,1.7857,0,0,1.699,1.7121,1.7142,1.7191,1.7292,1.7361,1.745,1.7547,1.7595,1.7674,1.775,1.7876,1.7873,1.7932,1.7964,1.8021,1.8103,1.8011,1.8014,1.8025,1.8233,1.8234,1.8251,1.8112,1.8115,1.8118,1.8225,0,1.709,1.7248,1.729,1.7425,1.7505,1.7531,1.7608,1.768,1.7726,1.7802,1.7853,1.7941,1.793,1.7966,1.8024,1.8081,1.8146,1.8074,1.8186,1.8189,1.8162,1.827,1.8273,1.837,1.824,1.8242,1.8244,0,1.7228,1.7306,1.7448,1.7538,1.7574,1.7643,1.7735,1.7807,1.7889,1.7918,1.7983,1.8009,1.8104,1.8074,1.8206,1.8156,1.8204,1.8239,1.8244,1.8257,1.8221,1.8286,1.8402,1.8417,1.8267,1.8265,1.8264,0,1.7277,1.7419,1.7522,1.7563,1.7671,1.7719,1.7767,1.7846,1.7901,1.7982,1.8019,1.811,1.816,1.8231,1.8282,1.8255,1.841,1.8384,1.8438,1.8437,1.847,1.8467,1.8596,1.8501,1.8501,1.85,1.85,0,1.7384,1.747,1.7545,1.7609,1.7706,1.7754,1.7849,1.7898,1.7968,1.8043,1.8071,1.814,1.8202,1.8281,1.8321,1.8424,1.8447,1.8474,1.8484,1.8472,1.8468,1.8505,1.8499,1.8504,1.8503,1.8503,1.8502,0,1.7456,1.751,1.7624,1.7716,1.7741,1.7809,1.7889,1.7952,1.7997,1.8091,1.8116,1.8189,1.8282,1.8339,1.8458,1.8485,1.8599,1.8607,1.8571,1.8575,1.8626,1.8621,1.8783,1.8807,1.8695,1.8696,1.8697,0,1.7521,1.7587,1.7686,1.7737,1.7784,1.7866,1.7922,1.7972,1.8029,1.8127,1.8178,1.8273,1.8351,1.8499,1.8564,1.8655,1.8665,1.8715,1.8679,1.8664,1.8666,1.8661,1.8668,1.8722,1.8723,1.8723,1.8724,0,1.7631,1.7653,1.7732,1.782,1.7885,1.7957,1.8029,1.8069,1.8132,1.8195,1.8289,1.835,1.847,1.8564,1.866,1.8711,1.8728,1.8735,1.8752,1.874,1.8717,1.873,1.8588,1.8731,1.873,1.873,1.8729,1.8729,1.7701,1.7761,1.7839,1.7926,1.7984,1.8051,1.8114,1.8167,1.8246,1.8346,1.8371,1.847,1.8551,1.8681,1.8734,1.8813,1.8806,1.8831,1.8838,1.8843,1.8844,1.8704,1.8831,1.8831,1.8831,1.8831,1.8831,0,1.7812,1.7863,1.7942,1.804,1.8108,1.8116,1.8196,1.8253,1.8339,1.8411,1.8487,1.8595,1.8686,1.8757,1.885,1.89,1.891,1.8923,1.892,1.8931,1.8845,1.8821,1.8913,1.8913,1.8913,1.8913,1.8913,1.8913,1.7877,1.7979,1.8011,1.8141,1.8193,1.8288,1.8333,1.8394,1.8452,1.8571,1.8646,1.8691,1.8763,1.8861,1.8945,1.8964,1.8997,1.9008,1.9028,1.8946,1.8937,1.8929,1.8906,1.9015,1.9015,1.9107,1.9108,1.9109]},{"header":{"parameterUnit":"m.s-1","parameterCategory":1,"la1":30.2991,"la2":30.254,"lo1":-89.0895,"lo2":-89.0444,"dy":0.0017,"dx":0.0017,"nx":28,"ny":28,"refTime":"2024-07-31T21:00:00:Z","depth":0,"parameterNumber":3,"parameterNumberName":"V-component_of_WINDS"},"data":[0,0,0,0,0,0,0,0,0,0,0,0,0,0,0,0,0,0,0,0,0,0,0,0,0,0,0,0,0,0,0,0,0,0,0,0,0,0,0,0,0,0,0,0,0,0,0,0,0,0,0,0,0,0,0,0,0,0,2.8091,2.8091,0,2.8135,2.8135,2.8136,2.8115,2.8113,2.8112,2.8111,2.8155,2.8158,2.816,0,0,0,0,0,0,0,0,0,0,0,0,0,2.7985,2.7987,2.8091,2.8091,2.8092,2.8135,2.8135,2.8136,2.8115,2.8113,2.8112,2.8111,2.8155,2.8157,2.816,0,0,0,0,0,0,0,0,0,0,0,0,0,2.803,2.7987,2.8091,2.8086,2.8087,2.8135,2.8135,2.8136,2.8115,2.8113,2.8112,2.811,2.8154,2.8157,2.816,2.8215,0,0,2.8171,2.8172,0,0,0,0,0,0,0,0,2.8027,2.8034,2.8087,2.8087,2.8087,2.8117,2.8114,2.8163,2.8115,2.8104,2.8111,2.8109,2.8144,2.8148,2.816,2.8217,2.8219,2.8171,2.8173,2.8174,2.8175,0,0,0,0,0,0,0,2.8024,2.8032,2.8108,2.8087,2.8088,2.8081,2.8086,2.8123,2.8133,2.8105,2.8104,2.8109,2.8144,2.8157,2.8161,2.822,2.8171,2.8174,2.8176,2.8177,2.8318,2.8319,0,0,0,0,0,0,2.8022,2.8029,2.8107,2.811,2.8052,2.8084,2.809,2.8109,2.8133,2.8135,2.8111,2.8108,2.8152,2.8157,2.8162,2.8224,2.8174,2.8177,2.8179,2.8316,2.8318,2.832,0,0,0,0,0,0,2.8019,2.8029,2.8105,2.8069,2.8078,2.8088,2.8111,2.8111,2.8124,2.8137,2.8138,2.8122,2.8151,2.8158,2.8201,2.8225,2.8179,2.8182,2.8314,2.8317,2.8319,2.8349,0,0,0,0,0,0,2.8016,2.8028,2.805,2.807,2.808,2.8144,2.8112,2.8113,2.813,2.8127,2.8148,2.815,2.815,2.8196,2.8204,2.8229,2.8185,2.8312,2.8315,2.8318,2.8346,2.8353,2.8358,0,0,0,0,0,2.8013,2.8058,2.8051,2.8061,2.8108,2.8146,2.8151,2.8151,2.8132,2.8153,2.816,2.8149,2.8222,2.8201,2.821,2.8236,2.831,2.8314,2.8318,2.8344,2.8351,2.8358,0,0,0,0,0,0,2.8042,2.8061,2.8054,2.8107,2.8124,2.8142,2.8169,2.816,2.8184,2.818,2.8178,2.8183,2.8226,2.8236,2.8212,2.8287,2.8263,2.8269,2.8279,2.8287,2.8293,2.8288,2.8187,0,0,0,0,0,2.8055,2.8084,2.8099,2.8144,2.8153,2.8159,2.8176,2.8173,2.8192,2.8199,2.821,2.8228,2.8254,2.8271,2.8297,2.8348,2.835,2.837,2.8376,2.8381,2.8385,2.8408,2.8416,2.8333,2.8333,2.8332,0,0,2.8081,2.8095,2.8114,2.815,2.8164,2.8192,2.8166,2.8199,2.8219,2.8204,2.8244,2.8253,2.8272,2.8318,2.8339,2.8327,2.8409,2.8386,2.839,2.8391,2.8413,2.8421,2.8428,2.8335,2.8335,2.8334,0,0,2.8143,2.8159,2.8195,2.8209,2.8229,2.8232,2.8241,2.8259,2.8263,2.8303,2.8291,2.8315,2.8362,2.8374,2.8387,2.8449,2.8438,2.8457,2.8488,2.8511,2.8517,2.8523,2.8541,2.8548,2.8462,2.8462,2.8462,0,2.8174,2.8217,2.8216,2.8248,2.8262,2.8249,2.8284,2.8298,2.8325,2.8335,2.8321,2.8376,2.8388,2.8435,2.8449,2.8462,2.8469,2.8454,2.8517,2.8522,2.8528,2.8545,2.8552,2.8464,2.8464,2.8464,2.8464,0,2.8251,2.8281,2.8308,2.8333,2.8351,2.8385,2.8387,2.8405,2.84,2.8404,2.8442,2.8456,2.8482,2.8493,2.849,2.8538,2.853,2.8517,2.8492,2.8537,2.8553,2.8561,2.8467,2.8466,2.8466,2.8465,0,0,2.8334,2.8355,2.8365,2.8373,2.8393,2.8415,2.8447,2.8471,2.8485,2.8504,2.8528,2.8566,2.8552,2.8566,2.8564,2.8584,2.8627,2.8568,2.8568,2.8575,2.8676,2.8684,2.8692,2.8621,2.8622,2.8623,2.8673,0,2.8394,2.845,2.8447,2.8498,2.8523,2.8509,2.8536,2.855,2.8553,2.8574,2.8579,2.8603,2.8586,2.8594,2.8613,2.8618,2.8647,2.8615,2.8641,2.8642,2.8634,2.8701,2.871,2.8757,2.868,2.8681,2.8682,0,2.8473,2.8491,2.8544,2.8555,2.8566,2.859,2.8609,2.8631,2.8645,2.8646,2.866,2.8653,2.8682,2.8658,2.8697,2.8675,2.8685,2.8689,2.869,2.8691,2.8663,2.87,2.8773,2.8778,2.8693,2.8692,2.8691,0,2.8523,2.8562,2.8597,2.8606,2.8621,2.8637,2.8644,2.8657,2.867,2.8687,2.8694,2.8716,2.8726,2.8742,2.8739,2.8723,2.8778,2.8754,2.8777,2.8777,2.8788,2.8786,2.8859,2.8799,2.8799,2.8799,2.8799,0,2.8589,2.862,2.8619,2.864,2.8674,2.867,2.8704,2.8709,2.8719,2.874,2.873,2.875,2.8747,2.8766,2.8765,2.8795,2.8801,2.8801,2.88,2.88,2.88,2.8805,2.8801,2.8801,2.8801,2.88,2.88,0,2.865,2.865,2.8687,2.8697,2.87,2.8724,2.8732,2.8751,2.8753,2.8779,2.8785,2.8788,2.8809,2.8809,2.8835,2.8834,2.8869,2.8866,2.8864,2.8862,2.8884,2.888,2.8961,2.897,2.8906,2.8907,2.8908,0,2.869,2.8714,2.8725,2.8738,2.8745,2.8767,2.8779,2.8775,2.8788,2.8804,2.882,2.884,2.8856,2.8891,2.8895,2.8913,2.8908,2.8935,2.891,2.8909,2.8904,2.8901,2.8902,2.8939,2.8939,2.894,2.894,0,2.8761,2.8759,2.8777,2.8794,2.8809,2.8823,2.8835,2.8846,2.8843,2.8858,2.8879,2.8891,2.8915,2.8935,2.8951,2.8957,2.8947,2.8948,2.8954,2.8953,2.895,2.8948,2.8873,2.8946,2.8945,2.8945,2.8945,2.8944,2.8811,2.8829,2.8838,2.8858,2.8866,2.8877,2.8894,2.8897,2.8914,2.8933,2.893,2.8952,2.8962,2.8983,2.8991,2.9007,2.8998,2.9007,2.9009,2.901,2.9011,2.8949,2.9011,2.9011,2.901,2.901,2.901,0,2.8877,2.8882,2.89,2.8916,2.893,2.892,2.8932,2.8944,2.8964,2.8974,2.8989,2.9011,2.9029,2.9033,2.9049,2.9061,2.9057,2.9065,2.9063,2.9064,2.902,2.9012,2.9068,2.9068,2.9068,2.9068,2.9068,2.9068,2.8913,2.8942,2.8941,2.8973,2.8977,2.8999,2.9006,2.9015,2.9022,2.9047,2.9061,2.9063,2.907,2.9086,2.9101,2.9102,2.9107,2.9116,2.9115,2.9074,2.9068,2.9062,2.9054,2.9118,2.9118,2.9157,2.9157,2.9157]}]]